Weather History for Las Cruces, NM

Change the Weather History Date:

Monday, April 29, 2013

  Actual Average Record
Temperature  
Mean Temperature 70 °F -  
Max Temperature 89 °F 78 °F 89 °F (2002)
Min Temperature 50 °F 48 °F 41 °F (2008)
Cooling Degree Days 4    
Growing Degree Days 20 (Base 50)    
Moisture  
Dew Point 10 °F    
Average Humidity 11    
Maximum Humidity 24    
Minimum Humidity 5    
Precipitation  
Precipitation 0.00 in - - ()
Sea Level Pressure  
Sea Level Pressure 29.90 in    
Wind  
Wind Speed 6 mph (WSW)    
Max Wind Speed 20 mph    
Max Gust Speed 28 mph    
Visibility 10 miles    
Events      
Averages and records for this station are not official NWS values.
T = Trace of Precipitation, MM = Missing Value Source: NWS Daily Summary

Daily Weather History Graph

Daily Weather History Graph

Search for Another Location

Airport:

Trip Planner

Search our weather history database for the weather conditions in past years. The results will help you decide how hot, cold, wet, or windy it might be!

Date:

Astronomy

Apr. 29, 2013 Rise Set
Actual Time 6:22 AM MDT 7:47 PM MDT
Civil Twilight 5:56 AM MDT 8:13 PM MDT
Nautical Twilight 5:25 AM MDT 8:44 PM MDT
Astronomical Twilight 4:53 AM MDT 9:16 PM MDT
Moon No Moon Rise 9:52 AM MDT (4/29)
Length of Visible Light 14h 16m
Length of Day
13h 24m
Waning Gibbous, 79% of the Moon is Illuminated
Apr 29
Waning Gibbous
May 2
Last Quarter
May 9
New
May 17
First Quarter
May 24
Full

Hourly Weather History & Observations

Time (MDT) Temp. Dew Point Humidity Pressure Visibility Wind Dir Wind Speed Gust Speed Precip Events Conditions
12:15 AM 60.1 °F 8.6 °F 13% 29.94 in 10.0 mi West 6.9 mph - N/A   Clear
12:35 AM 57.6 °F 7.7 °F 14% 29.95 in 10.0 mi West 5.8 mph - N/A   Clear
12:55 AM 58.5 °F 8.4 °F 14% 29.95 in 10.0 mi West 3.5 mph - N/A   Clear
1:15 AM 59.2 °F 9.0 °F 14% 29.95 in 10.0 mi West 5.8 mph - N/A   Clear
1:35 AM 56.5 °F 7.7 °F 14% 29.94 in 10.0 mi West 8.1 mph - N/A   Clear
1:55 AM 62.2 °F 11.1 °F 13% 29.94 in 10.0 mi WSW 10.4 mph - N/A   Clear
2:15 AM 63.0 °F 11.3 °F 13% 29.94 in 10.0 mi WSW 9.2 mph - N/A   Clear
2:35 AM 58.3 °F 9.5 °F 14% 29.94 in 10.0 mi West 8.1 mph - N/A   Clear
2:55 AM 56.8 °F 9.1 °F 15% 29.93 in 10.0 mi WSW 5.8 mph - N/A   Clear
3:15 AM 53.8 °F 7.9 °F 16% 29.93 in 10.0 mi West 5.8 mph - N/A   Clear
3:35 AM 55.4 °F 9.0 °F 16% 29.93 in 10.0 mi West 4.6 mph - N/A   Clear
3:55 AM 52.0 °F 7.9 °F 17% 29.93 in 10.0 mi East 3.5 mph - N/A   Clear
4:15 AM 54.5 °F 10.6 °F 17% 29.92 in 10.0 mi Calm Calm - N/A   Clear
4:35 AM 54.3 °F 10.9 °F 18% 29.94 in 10.0 mi SE 8.1 mph - N/A   Clear
4:55 AM 56.7 °F 13.8 °F 18% 29.94 in 10.0 mi SE 5.8 mph - N/A   Clear
5:15 AM 54.1 °F 13.8 °F 20% 29.95 in 10.0 mi SSE 3.5 mph - N/A   Clear
5:35 AM 56.7 °F 16.7 °F 21% 29.94 in 10.0 mi SE 5.8 mph - N/A   Clear
5:55 AM 53.1 °F 16.7 °F 24% 29.95 in 10.0 mi Calm Calm - N/A   Clear
6:15 AM 53.8 °F 16.7 °F 23% 29.95 in 10.0 mi SSW 4.6 mph - N/A   Clear
6:35 AM 51.4 °F 15.4 °F 24% 29.96 in 10.0 mi South 3.5 mph - N/A   Clear
6:55 AM 50.5 °F 14.9 °F 24% 29.96 in 10.0 mi Calm Calm - N/A   Clear
7:15 AM 54.1 °F 14.9 °F 21% 29.96 in 10.0 mi WSW 3.5 mph - N/A   Clear
7:35 AM 55.8 °F 15.4 °F 20% 29.97 in 10.0 mi Calm Calm - N/A   Clear
7:55 AM 60.1 °F 15.8 °F 18% 29.97 in 10.0 mi Calm Calm - N/A   Clear
8:15 AM 62.2 °F 14.5 °F 16% 29.97 in 10.0 mi Calm Calm - N/A   Clear
8:35 AM 64.4 °F 12.9 °F 14% 29.97 in 10.0 mi Calm Calm - N/A   Clear
8:55 AM 66.4 °F 11.7 °F 12% 29.98 in 10.0 mi Calm Calm - N/A   Clear
9:15 AM 68.4 °F 10.9 °F 11% 29.97 in 10.0 mi Calm Calm - N/A   Clear
9:35 AM 69.1 °F 11.1 °F 11% 29.97 in 10.0 mi Calm Calm - N/A   Clear
9:55 AM 70.7 °F 11.1 °F 10% 29.96 in 10.0 mi Calm Calm - N/A   Clear
10:15 AM 72.3 °F 10.9 °F 9% 29.97 in 10.0 mi Calm Calm - N/A   Clear
10:35 AM 74.7 °F 11.3 °F 9% 29.97 in 10.0 mi Calm Calm - N/A   Clear
10:55 AM 75.2 °F 10.6 °F 8% 29.97 in 10.0 mi Calm Calm - N/A   Clear
11:15 AM 77.9 °F 11.3 °F 8% 29.96 in 10.0 mi South 5.8 mph - N/A   Clear
11:35 AM 77.9 °F 11.3 °F 8% 29.96 in 10.0 mi Calm Calm - N/A   Clear
11:55 AM 79.3 °F 11.3 °F 8% 29.95 in 10.0 mi WSW 4.6 mph - N/A   Clear
12:15 PM 82.0 °F 11.3 °F 7% 29.95 in 10.0 mi NW 3.5 mph - N/A   Clear
12:35 PM 83.3 °F 11.5 °F 7% 29.94 in 10.0 mi WNW 3.5 mph - N/A   Clear
12:55 PM 82.6 °F 10.8 °F 7% 29.92 in 10.0 mi SSE 4.6 mph - N/A   Clear
1:15 PM 84.9 °F 10.8 °F 6% 29.92 in 10.0 mi Calm Calm - N/A   Clear
1:35 PM 85.8 °F 10.4 °F 6% 29.91 in 10.0 mi West 4.6 mph - N/A   Clear
1:55 PM 84.9 °F 9.7 °F 6% 29.90 in 10.0 mi ESE 4.6 mph - N/A   Clear
2:15 PM 85.6 °F 10.0 °F 6% 29.88 in 10.0 mi Calm Calm - N/A   Clear
2:35 PM 87.4 °F 10.2 °F 6% 29.88 in 10.0 mi SW 12.7 mph 19.6 mph N/A   Clear
2:55 PM 86.5 °F 10.0 °F 6% 29.86 in 10.0 mi Calm Calm - N/A   Clear
3:15 PM 89.1 °F 10.4 °F 5% 29.86 in 10.0 mi West 19.6 mph 27.6 mph N/A   Clear
3:35 PM 86.7 °F 9.9 °F 6% 29.85 in 10.0 mi WSW 8.1 mph - N/A   Clear
3:55 PM 87.8 °F 8.6 °F 5% 29.84 in 10.0 mi WSW 8.1 mph 20.7 mph N/A   Clear
4:15 PM 87.4 °F 8.4 °F 5% 29.83 in 10.0 mi SW 8.1 mph - N/A   Clear
4:35 PM 87.4 °F 8.4 °F 5% 29.82 in 10.0 mi WSW 10.4 mph 18.4 mph N/A   Clear
4:55 PM 86.5 °F 8.4 °F 5% 29.82 in 10.0 mi SSW 9.2 mph - N/A   Clear
5:15 PM 87.8 °F 7.9 °F 5% 29.81 in 10.0 mi SW 13.8 mph 19.6 mph N/A   Clear
5:35 PM 87.4 °F 7.7 °F 5% 29.81 in 10.0 mi WSW 5.8 mph - N/A   Clear
5:55 PM 86.5 °F 7.7 °F 5% 29.80 in 10.0 mi West 5.8 mph 19.6 mph N/A   Clear
6:15 PM 86.0 °F 8.4 °F 5% 29.80 in 10.0 mi South 4.6 mph - N/A   Clear
6:35 PM 86.0 °F 10.0 °F 6% 29.80 in 10.0 mi WSW 12.7 mph - N/A   Clear
6:55 PM 85.1 °F 9.5 °F 6% 29.80 in 10.0 mi SW 10.4 mph 13.8 mph N/A   Clear
7:15 PM 84.2 °F 9.3 °F 6% 29.80 in 10.0 mi SW 9.2 mph - N/A   Clear
7:35 PM 82.6 °F 9.1 °F 6% 29.80 in 10.0 mi WSW 9.2 mph - N/A   Clear
7:55 PM 80.4 °F 8.6 °F 6% 29.80 in 10.0 mi WSW 8.1 mph - N/A   Clear
8:15 PM 78.4 °F 8.2 °F 7% 29.81 in 10.0 mi WSW 8.1 mph - N/A   Clear
8:35 PM 75.2 °F 7.7 °F 7% 29.82 in 10.0 mi WSW 9.2 mph - N/A   Clear
8:55 PM 74.7 °F 7.9 °F 8% 29.82 in 10.0 mi WSW 9.2 mph - N/A   Clear
9:35 PM 73.6 °F 8.1 °F 8% 29.83 in 10.0 mi WSW 10.4 mph - N/A   Clear
9:55 PM 72.0 °F 7.7 °F 8% 29.83 in 10.0 mi WSW 9.2 mph - N/A   Clear
10:15 PM 69.4 °F 6.8 °F 9% 29.83 in 10.0 mi WSW 9.2 mph - N/A   Clear
10:35 PM 66.7 °F 5.9 °F 9% 29.83 in 10.0 mi WSW 10.4 mph - N/A   Clear
10:55 PM 66.0 °F 5.9 °F 9% 29.82 in 10.0 mi West 10.4 mph - N/A   Clear
11:15 PM 65.7 °F 5.9 °F 10% 29.82 in 10.0 mi West 11.5 mph - N/A   Clear
11:35 PM 68.0 °F 6.4 °F 9% 29.82 in 10.0 mi West 12.7 mph - N/A   Clear
11:55 PM 68.2 °F 6.4 °F 9% 29.82 in 10.0 mi West 12.7 mph - N/A   Clear